SUPERVIEW NEO-1 04

导读 | 豆包AI

SUPERVIEW NEO-1 04是中国于2025年2月27日发射的高分辨率商业光学遥感卫星,隶属于四维测绘科技的SuperView NEO-1星座。该系列卫星达到0.3米原始分辨率,跻身国际现役商业遥感卫星最高分辨率行列,在全球商业遥感光电成像能力评估中排名领先,主要用于高分辨率陆地观测与灾害监测,标志着中国商业光学遥感技术实现突破。

基本信息
目录编号:
63126
目录名称:
SUPERVIEW NEO-1 04
国际标识:
2025-040B
轨道中心:
EARTH
卫星名称:
SUPERVIEW NEO-1 04
卫星全名:
SUPERVIEW NEO-1 04
卫星状态:
在轨 (已飞行379 天)
发射日期:
2025-02-27 UTC
国别 :
中国 (CN)
星等 :
--
轨道信息
数据来源 国际轨道数据
星历时间: 2026-03-13T03:05:05+0800
1天前
查看轨道信息
半长轴: 6878.809km
偏心率: 0.0000884
轨道倾角: 97.340°
近地点辐角 185.739°
升交点赤经 188.599°
平近点角 174.383°
近地点: 500.063km
远地点: 501.281km
周期: 94.630分钟
每日圈数: 15.217137
详细信息
使用方式:
暂无
2D轨道图
3D轨道图
轨道高度分析图
轨道倾角分析图
轨道综合分析图
查看轨道综合分析图